Cyril Gazengel

Cyril Gazengel

Statistiques 2026

  • Courses courues : 147
  • Nb de victoires : 10
  • Nb de places : 30
  • Écart gagnant : 34
  • Réussite à la gagne : 7%
  • Réussite à la place : 20%
Musique : 0a 8a 7a 7a 3a Da 7a Da Da Da 2a 7a 0a 8a Da 8a 0a 6a
DateRangCatégorieAlloc.Dist.HippodromeChevalRed. KmSpé.
16/10/15 3 Trot 14 000€ 2 950m Toulouse Bisou du Pressoir 1'19"3 Attelé
19/10/15 0 Trot 12 000€ 2 575m Agen Chocolat Noir Attelé
19/10/15 1 Trot 12 000€ 2 625m Agen Boss Tout Puissant 1'19"0 Attelé
18/10/15 D Trot 12 000€ 2 575m Agen Bali Chafs Attelé
18/10/15 0 Trot 15 000€ 2 575m Agen Volupte Danover Attelé
18/10/15 0 Trot 35 000€ 2 650m Agen Scream Attelé
26/10/15 5 Trot 22 000€ 2 750m Toulouse Solerino 1'17"0 Attelé
26/10/15 5 Trot 20 000€ 2 950m Toulouse Concertino 1'19"4 Attelé
26/10/15 0 Trot 25 000€ 2 950m Toulouse Vanda de Godrel Attelé
26/10/15 9 Trot 18 000€ 2 150m Toulouse Basse Terre 1'18"7 Attelé
26/10/15 9 Trot 18 000€ 2 150m Toulouse Boss de Viette 1'18"6 Attelé
25/10/15 D Trot 14 000€ 2 550m Bordeaux Le Bouscat Boss Tout Puissant Attelé
25/10/15 2 Trot 17 000€ 2 550m Bordeaux Le Bouscat Aridelle de Renier 1'15"9 Attelé
25/10/15 D Trot 14 000€ 2 550m Bordeaux Le Bouscat Biche Danover Attelé
31/10/15 7 Mixte 15 000€ 2 400m Beaumont De Lomagne Bisou du Pressoir 1'17"2 Attelé
01/11/15 4 Trot 14 000€ 2 400m Beaumont De Lomagne Chance de Lespi 1'17"9 Attelé
01/11/15 0 Trot 14 000€ 2 400m Beaumont De Lomagne Artaban du Hamet Attelé
08/11/15 5 Trot 17 000€ 2 400m Castelsarrasin Va Bene Danover 1'17"8 Attelé
11/11/15 5 Trot 14 000€ 2 825m Auch Basse Terre 1'18"2 Attelé lire

Encore en très net retrait au bout de la ligne opposée, a terminé de très bonne manière, sans avoir le temps de venir inquiéter les premiers.

11/11/15 2 Trot 13 000€ 2 250m Auch Chance de Lespi 1'17"8 Attelé
22/11/15 D Trot 14 000€ 2 750m Toulouse Bessin Attelé
05/12/15 D Trot 15 000€ 2 725m Grenade Sur Garonne Boss Tout Puissant Attelé
06/12/15 D Trot 13 000€ 2 625m Agen Carla de Rouaisse Attelé
06/12/15 0 Trot 13 000€ 2 575m Agen Bessin Attelé
06/12/15 0 Trot 15 000€ 2 575m Agen Amelium Tivoli Attelé
07/12/15 6 Trot 26 000€ 2 650m Marseille Vivaux Ultra Mix 1'18"4 Attelé
13/12/15 0 Trot 15 000€ 2 725m Grenade Sur Garonne Belta Follia Attelé
23/12/15 0 Trot 23 000€ 2 675m Bordeaux Le Bouscat Augusta Danover Attelé lire

Après avoir bien figuré, a complètement cédé dans la phase finale.

27/12/15 4 Trot 32 000€ 2 400m Montauban The Au Lait 1'16"0 Attelé
27/12/15 5 Trot 17 000€ 2 425m Montauban Angelica Danover 1'16"8 Attelé
27/12/15 3 Trot 17 000€ 2 425m Montauban Aridelle de Renier 1'18"0 Attelé
03/01/16 D Trot 12 000€ 2 150m Toulouse Code Magic Attelé
03/01/16 4 Trot 20 000€ 2 975m Toulouse Venise Danover 1'16"7 Attelé
04/01/16 2 Trot 18 000€ 2 325m Toulouse Chance de Lespi 1'18"4 Attelé
04/01/16 1 Trot 18 000€ 2 750m Toulouse Belta Follia 1'19"2 Attelé
10/01/16 8 Trot 13 000€ 2 750m Grenade Sur Garonne Colonel Chanlecy 1'21"5 Attelé
10/01/16 2 Trot 15 000€ 2 750m Grenade Sur Garonne Aridelle de Renier 1'18"6 Attelé
11/01/16 D Trot 28 000€ 2 650m Marseille Vivaux Ultra Mix Attelé
17/01/16 5 Trot 25 000€ 2 950m Toulouse Va Bene Danover 1'17"2 Attelé
20/01/16 3 Trot 23 000€ 2 625m Agen Bastion de Vivy 1'16"9 Attelé lire

Tout de suite aux avant postes, a très bien lutté jusqu'au bout, conservant ainsi une courageuse troisième place.

25/01/16 5 Trot 16 000€ 2 750m Toulouse Angelica Danover 1'18"0 Attelé
31/01/16 D Trot 20 000€ 2 950m Toulouse Vista Danover Attelé
01/02/16 3 Trot 17 000€ 2 150m Toulouse Chance de Lespi 1'17"8 Attelé
01/02/16 7 Trot 24 000€ 2 975m Toulouse Venise Danover 1'17"6 Attelé
12/02/16 D Trot 21 000€ 2 150m Toulouse Chance de Lespi Attelé lire

Attentiste en retrait, a conclu de bonne manière pour venir prendre la cinquième place mais, pas au trot.

12/02/16 2 Trot 19 000€ 2 750m Toulouse Aridelle de Renier 1'18"1 Attelé lire

Attentiste en retrait,a comblé du terrain au bout de la ligne opposée, puis a bien conclu mais sans menacer la lauréate.

12/02/16 9 Trot 18 000€ 2 975m Toulouse Belta Follia 1'19"6 Attelé lire

A toujours trotté en queue de peloton.

14/02/16 4 Trot 13 000€ 2 725m Grenade Sur Garonne Dreamer Smart 1'21"4 Attelé
14/02/16 9 Trot 13 000€ 2 725m Grenade Sur Garonne Cierana 1'19"7 Attelé
21/02/16 7 Trot 14 000€ 2 550m Bordeaux Le Bouscat Code Magic 1'17"2 Attelé